Location: Unspecified
(0.0000°N, 0.0000°E)
Time: 17:51:59
(UTC+00:00)

Hubble Space Telescope - Pass Details

Date: 16 January 2021
Orbit: 536 x 539 km, 28.5° (Epoch: 24 January)

Event Time Altitude Azimuth Distance (km) Brightness Sun altitude
Exits shadow 03:31:42 11° 111° (ESE) 1,687 4.0 -36.5°
Drops below altitude 10° 03:31:50 11° 111° (ESE) 1,735 4.1 -36.4°
Sets 03:34:13 0° 115° (ESE) 2,668 5.3 -35.9°
